User: anonymous   Login
Location: Asarope
(8.2500°N, 4.4833°E)
Time: 12:02:49
(UTC+00:00)
Language:

Cosmos 405 - Orbit

View from above orbital plane
View from above orbital plane
View from above satellite
View from above satellite

Ground track
Ground track

The orbit data is extracted from the following two-line orbital elements,

1 05117U 71028A   21166.82210429  .00001905  00000-0  50938-4 0  9990
2 05117  81.2629  68.6716 0010361 138.5172 287.0955 15.37474045736435
Epoch (UTC): 15 June 2021 19:43:49
Eccentricity: 0.0010361
inclination: 81.2629°
perigee height: 446 km
apogee height: 460 km
right ascension of ascending node: 68.6716°
argument of perigee: 138.5172°
revolutions per day: 15.37474045
mean anomaly at epoch: 287.0955°
orbit number at epoch: 73643

The dashed part of the orbit path shows where the satellite is in the earth's shadow,  

DLR